Wind_Speed
46 47 47 49 49 49 48 49 49 49 47 45 44 43 43 45 44 43 46 46 44 45 44 42 40 38 34 30 29 26 21 16 25 19 17 15 11 12 15 15 15 17 17 22 23
43 47 48 50 50 49 49 49 50 50 51 50 49 47 46 46 48 47 46 47 48 47 46 44 44 43 39 37 34 29 28 21 28 23 20 16 20 16 20 20 23 19 16 21 23
40 43 47 49 51 51 51 51 50 50 50 51 52 49 47 48 47 50 48 47 48 49 48 46 45 46 45 44 38 34 34 30 27 24 23 25 18 16 23 18 21 20 14 21 24
38 41 44 46 49 51 51 50 51 51 50 49 49 47 46 45 45 48 49 48 48 49 50 49 49 48 49 47 43 43 41 39 36 27 24 25 25 24 25 20 19 18 16 22 24
41 41 43 44 45 47 49 50 51 51 51 51 50 49 46 43 43 43 47 48 49 49 50 52 51 48 49 51 49 46 47 43 40 32 29 25 37 30 23 8 21 26 24 23 26
43 44 44 45 45 46 47 48 49 50 51 51 52 50 46 46 42 42 42 43 44 44 45 50 49 51 47 47 49 48 46 43 40 37 31 6 23 27 26 22 27 28 22 23 26
48 50 50 51 51 51 50 50 50 50 50 49 49 48 45 49 44 42 42 41 41 41 41 42 44 47 50 50 47 47 48 46 42 39 35 40 44 33 30 30 31 32 27 23 23
53 54 55 56 57 57 57 56 56 56 55 53 52 50 48 47 47 46 44 42 41 40 38 37 37 40 44 49 48 47 47 47 41 39 37 38 35 34 33 38 35 37 31 25 27
60 60 61 61 62 63 64 63 62 61 60 58 56 52 53 50 53 50 46 46 43 41 39 37 35 35 36 39 43 46 45 45 43 38 32 32 37 37 35 39 43 38 37 25 28
65 66 67 67 68 69 69 69 68 67 65 64 63 60 59 58 55 51 50 50 47 43 41 39 38 36 35 33 35 41 42 41 42 37 31 39 45 36 33 33 30 36 39 34 35
70 70 71 72 72 73 73 74 73 72 72 72 67 67 64 63 61 61 59 54 50 46 47 46 39 37 40 37 33 27 36 40 39 44 37 44 37 52 41 31 26 37 33 31 36
76 77 78 78 77 77 77 77 79 76 76 76 73 74 70 69 70 67 63 59 57 56 54 47 40 48 44 40 34 30 33 40 44 50 44 39 38 38 35 38 32 36 32 35 34
81 81 82 83 83 83 82 83 82 81 79 81 79 79 77 75 73 72 69 68 63 63 58 52 59 52 47 43 38 36 34 35 48 57 59 51 41 33 47 36 50 48 35 40 39
82 85 86 87 88 88 87 88 87 87 84 87 84 82 80 78 77 79 75 73 69 67 65 63 64 55 51 46 44 41 40 37 45 56 65 54 59 58 54 50 41 47 53 54 44
78 80 85 89 91 92 91 91 91 90 89 90 88 83 85 81 84 82 81 78 74 72 71 66 67 62 57 52 50 48 46 43 41 46 65 66 57 55 58 66 65 61 55 53 50
79 80 81 82 84 88 91 94 95 94 91 95 90 90 90 86 87 86 84 82 80 76 73 71 71 67 62 62 59 56 52 47 41 41 41 53 66 62 63 57 60 66 62 56 47
82 83 83 83 83 84 86 88 90 91 96 99 95 91 92 89 92 91 87 86 83 81 75 75 72 71 70 66 64 61 58 53 47 45 41 42 49 55 64 70 69 69 57 55 48
78 82 84 86 86 87 87 88 86 90 95 100 98 93 92 93 92 93 91 90 88 85 86 80 79 72 70 69 68 66 64 59 53 50 48 49 46 44 46 52 63 64 65 61 55
66 68 72 75 79 85 91 93 93 97 98 93 85 93 94 95 94 95 93 92 91 90 88 86 77 80 81 76 75 70 68 63 60 57 56 51 48 50 43 42 45 55 65 67 46
53 60 66 72 76 81 85 89 93 98 96 96 96 95 95 96 97 98 94 92 93 94 92 86 84 90 82 83 80 79 73 70 66 63 57 53 52 52 48 45 44 48 61 66 72
35 39 45 50 55 62 70 81 88 89 92 98 102 101 96 95 104 100 95 94 95 98 95 90 90 89 88 90 78 78 75 73 72 67 62 59 56 54 55 52 48 48 47 56 62
26 28 31 34 38 46 55 62 69 79 88 93 97 98 101 107 104 98 100 106 109 100 96 92 90 87 88 83 81 81 79 79 75 69 65 62 58 65 60 59 55 49 46 44 57
25 25 28 30 33 36 41 49 57 67 71 76 82 88 95 99 103 107 106 108 107 101 95 93 91 86 85 82 85 87 83 83 80 76 72 67 59 65 61 59 61 52 40 40 53
19 20 21 23 29 35 40 46 49 54 59 66 70 75 81 89 95 103 106 111 104 103 102 100 94 93 84 84 85 85 84 84 81 78 73 67 63 70 65 66 71 55 46 43 49
22 17 16 19 24 30 37 43 49 51 56 58 61 65 69 78 85 93 101 105 106 103 100 104 102 98 90 91 95 91 87 85 86 84 81 73 70 74 75 77 75 50 45 45 44
25 19 18 19 23 26 29 32 43 49 50 56 56 63 66 72 79 84 93 101 100 106 111 106 104 102 100 99 99 95 90 86 86 84 82 80 78 86 84 82 78 53 42 46 39
30 23 19 22 24 27 25 26 33 40 37 49 55 56 58 57 60 67 73 77 92 102 108 113 111 108 104 106 108 99 86 85 87 84 87 90 96 93 92 88 73 40 39 47 45
Wind_Direction
213 215 216 217 218 219 221 225 225 228 229 230 230 230 231 232 232 232 233 236 236 236 235 237 241 241 241 243 245 248 253 272 269 260 277 283 279 274 326 325 326 339 337 332 350
215 218 220 220 223 225 225 224 226 230 232 234 234 234 240 239 234 233 234 237 238 239 238 239 240 243 243 244 243 244 247 238 249 256 264 261 282 290 298 311 316 318 327 324 343
221 219 220 222 225 226 228 231 232 232 233 235 237 239 238 238 237 237 238 237 237 238 241 241 243 244 246 244 247 248 254 256 255 263 253 260 255 265 289 302 308 312 312 320 328
226 226 225 224 225 227 229 231 233 235 236 235 238 239 239 237 237 237 240 241 241 242 240 241 242 243 245 246 246 248 251 256 259 257 252 258 267 262 278 293 300 296 302 313 316
230 229 229 229 229 228 228 230 231 232 234 235 236 237 238 237 236 236 239 240 240 242 243 242 243 241 240 243 242 243 248 253 255 255 261 280 278 263 262 285 261 285 285 302 309
235 234 232 231 231 231 231 230 230 230 232 233 234 235 234 235 235 237 237 239 241 239 237 239 241 246 242 239 238 240 242 242 247 248 251 219 234 262 266 257 263 270 282 281 296
239 237 236 235 234 234 233 234 233 232 231 231 233 233 234 236 236 235 238 239 239 239 239 240 242 242 243 241 235 235 235 238 241 243 238 241 250 256 254 262 272 262 267 267 281
243 242 241 239 238 238 237 236 236 235 234 233 232 232 233 235 237 235 235 236 238 238 238 237 237 241 243 242 240 234 234 236 236 241 238 245 250 247 258 265 260 260 263 258 273
248 247 244 242 242 242 242 241 239 238 237 235 233 232 233 233 235 234 235 236 236 235 234 232 232 235 238 241 239 236 234 229 228 232 235 250 246 245 261 261 254 250 253 244 271
249 249 248 247 245 244 243 243 243 241 241 239 236 234 232 231 232 233 236 236 236 235 235 233 232 233 237 237 236 234 233 227 225 225 219 238 243 237 241 251 256 249 245 254 258
249 249 248 248 247 246 245 245 244 243 243 241 240 240 235 235 236 233 232 233 234 235 239 237 230 233 233 234 234 230 227 220 208 206 215 225 248 240 230 244 251 241 235 245 252
249 249 249 247 247 246 246 246 246 244 244 243 242 243 239 239 238 236 234 234 234 236 237 236 235 234 231 232 230 228 221 211 205 203 197 190 228 215 209 224 234 220 223 229 244
251 250 249 249 247 246 245 244 245 244 244 245 244 243 240 241 240 239 236 237 235 236 235 235 236 234 231 231 230 227 225 211 206 203 200 200 206 209 218 220 233 234 229 232 244
253 251 249 249 248 247 246 245 244 244 242 244 242 241 241 240 241 240 238 238 238 239 235 234 238 235 233 231 231 229 228 220 213 213 209 213 214 231 220 210 222 237 242 246 249
254 252 250 248 248 247 246 245 245 243 243 242 242 242 242 239 240 239 238 237 238 237 237 238 237 235 233 232 230 228 228 227 223 214 218 218 219 219 222 232 235 240 243 245 248
260 257 255 252 250 248 247 246 244 243 243 242 239 241 240 239 239 238 238 237 237 236 235 237 235 235 234 232 230 229 229 229 228 229 226 226 229 227 229 233 235 240 241 243 249
262 259 257 255 253 251 248 247 245 244 243 243 238 237 239 238 239 238 236 235 236 236 235 236 236 234 234 234 233 231 229 230 228 230 231 228 227 231 233 236 235 237 235 241 237
261 257 255 253 252 251 250 248 247 244 243 241 239 237 237 239 238 237 236 234 235 235 234 234 232 233 235 234 234 232 231 228 228 229 230 231 235 238 232 234 232 230 228 234 237
260 256 254 252 250 249 248 247 245 244 243 244 243 241 236 236 237 237 236 235 233 233 234 234 233 232 232 230 231 232 231 229 227 228 229 231 233 241 243 242 240 232 233 230 226
263 259 257 254 252 249 247 245 244 244 242 242 239 238 236 236 236 236 235 234 234 232 231 231 230 231 229 230 230 231 230 229 229 229 229 230 233 238 242 241 242 237 233 233 231
272 263 258 254 250 247 245 243 243 243 242 240 240 238 236 235 235 234 233 233 233 231 229 227 229 231 229 231 230 232 233 232 231 228 229 228 231 236 240 236 240 242 243 242 236
287 276 268 260 254 248 244 241 239 238 239 240 240 237 235 234 235 233 231 231 230 230 228 227 229 230 231 231 230 229 229 230 231 230 232 231 228 233 235 236 240 241 246 245 237
290 279 273 267 259 253 249 246 242 238 237 238 237 235 233 233 233 233 231 231 230 231 230 228 227 227 227 226 229 228 227 229 229 229 228 228 229 239 235 243 243 243 247 246 238
310 289 276 265 261 257 255 250 244 241 239 236 233 231 231 231 230 231 230 230 229 227 228 228 227 227 227 225 227 229 229 228 228 229 229 229 228 236 232 236 240 233 234 240 239
331 306 289 282 274 267 257 253 250 243 239 235 232 230 228 227 227 228 228 228 226 225 225 225 227 226 224 225 226 222 224 226 227 225 225 224 224 232 236 235 243 236 235 239 241
341 330 316 307 301 287 273 257 250 249 240 236 230 230 225 225 223 225 225 223 223 222 222 223 223 224 224 226 227 224 220 222 225 225 223 222 222 226 232 235 237 230 227 240 240
351 343 336 323 312 301 290 268 254 252 244 235 230 230 228 231 229 227 228 226 224 221 220 220 221 222 220 225 227 224 219 225 225 223 224 220 221 224 232 238 238 224 227 237 236
Height
10905 10909 10913 10917 10921 10925 10929 10933 10937 10941 10945 10949 10952 10956 10961 10964 10968 10972 10975 10979 10984 10990 10995 10999 11002 11007 11011 11015 11018 11021 11025 11032 11031 11031 11032 11032 11032 11033 11032 11032 11032 11031 11029 11026 11025
10900 10903 10907 10911 10915 10919 10923 10926 10930 10933 10938 10942 10946 10950 10954 10958 10962 10966 10970 10974 10978 10983 10987 10993 10997 11001 11005 11008 11013 11017 11021 11030 11028 11029 11031 11031 11032 11032 11032 11032 11031 11031 11030 11027 11027
10894 10897 10900 10903 10907 10912 10916 10919 10922 10926 10930 10934 10939 10942 10947 10951 10956 10959 10964 10968 10974 10978 10981 10986 10990 10995 10999 11002 11010 11015 11017 11021 11025 11027 11028 11029 11032 11031 11030 11032 11030 11031 11030 11028 11027
10887 10890 10893 10897 10900 10904 10908 10911 10914 10918 10922 10926 10930 10934 10939 10944 10949 10954 10957 10962 10966 10970 10974 10978 10983 10988 10991 10997 11004 11008 11012 11015 11018 11023 11027 11028 11029 11030 11030 11031 11030 11030 11030 11029 11027
10880 10883 10886 10890 10892 10896 10899 10903 10906 10910 10914 10918 10922 10926 10931 10935 10940 10945 10949 10954 10959 10963 10967 10970 10975 10980 10984 10990 10996 11000 11003 11010 11013 11019 11023 11026 11020 11024 11028 11031 11029 11028 11031 11030 11027
10872 10875 10878 10881 10884 10887 10891 10894 10898 10901 10905 10909 10914 10919 10924 10925 10933 10937 10940 10945 10950 10955 10960 10964 10968 10971 10977 10982 10986 10993 10998 10999 11006 11011 11020 11021 11012 11020 11023 11026 11026 11026 11029 11029 11027
10863 10865 10868 10871 10874 10877 10881 10885 10888 10892 10896 10900 10905 10910 10917 10915 10924 10930 10932 10937 10941 10946 10952 10956 10961 10964 10966 10971 10979 10988 10988 10992 10998 11003 11012 11016 11017 11015 11020 11022 11021 11022 11025 11027 11026
10851 10854 10857 10859 10863 10865 10869 10873 10877 10881 10885 10890 10895 10901 10907 10911 10914 10919 10924 10930 10933 10938 10944 10949 10953 10956 10958 10961 10970 10977 10982 10986 10990 10999 11002 11006 11008 11012 11015 11017 11017 11018 11022 11025 11024
10838 10840 10843 10846 10849 10852 10855 10859 10864 10868 10873 10879 10885 10892 10896 10903 10903 10909 10917 10921 10925 10930 10936 10942 10946 10949 10951 10954 10961 10967 10972 10977 10983 10991 10998 10999 11002 11004 11008 11009 11009 11012 11017 11020 11021
10822 10824 10826 10829 10833 10837 10840 10843 10848 10854 10860 10865 10871 10879 10884 10889 10896 10903 10907 10910 10917 10922 10927 10933 10938 10943 10945 10949 10952 10956 10964 10972 10981 10984 10993 10996 10991 10994 11001 11001 11003 11006 11011 11015 11018
10804 10805 10807 10810 10814 10818 10822 10826 10832 10838 10843 10847 10859 10864 10871 10876 10883 10887 10892 10900 10908 10915 10916 10921 10932 10937 10936 10941 10946 10954 10955 10963 10973 10972 10980 10987 10986 10985 10993 10993 10997 11002 11008 11012 11015
10783 10784 10785 10789 10793 10798 10802 10806 10810 10821 10826 10831 10841 10845 10856 10864 10866 10874 10882 10891 10897 10899 10904 10915 10925 10920 10928 10933 10941 10945 10947 10954 10961 10967 10972 10972 10973 10977 10985 10987 10994 10998 11002 11006 11008
10759 10762 10764 10766 10769 10775 10781 10785 10790 10798 10807 10811 10819 10827 10835 10844 10850 10859 10868 10874 10884 10886 10897 10905 10899 10911 10920 10927 10934 10937 10941 10948 10949 10956 10960 10962 10965 10967 10978 10982 10986 10991 10997 11000 11003
10733 10736 10739 10742 10745 10751 10757 10762 10768 10776 10787 10786 10799 10806 10817 10827 10835 10838 10850 10858 10867 10875 10882 10888 10888 10904 10912 10920 10925 10929 10933 10940 10944 10948 10952 10956 10964 10966 10973 10973 10977 10983 10988 10994 10998
10706 10708 10712 10716 10720 10725 10731 10737 10744 10753 10760 10767 10777 10792 10794 10808 10804 10819 10827 10839 10850 10857 10866 10876 10879 10890 10901 10910 10914 10920 10924 10930 10936 10941 10941 10948 10954 10963 10968 10965 10970 10975 10981 10986 10992
10680 10682 10686 10690 10694 10699 10705 10711 10717 10727 10737 10737 10756 10761 10771 10784 10787 10798 10809 10821 10827 10839 10852 10855 10864 10875 10888 10892 10901 10906 10915 10922 10929 10934 10940 10945 10947 10952 10951 10962 10965 10970 10974 10979 10986
10650 10653 10658 10661 10666 10671 10677 10683 10690 10705 10701 10705 10726 10737 10745 10759 10763 10775 10790 10801 10811 10821 10839 10837 10853 10863 10869 10879 10887 10896 10904 10913 10921 10925 10933 10935 10935 10940 10949 10950 10953 10960 10967 10972 10977
10616 10620 10625 10629 10634 10640 10647 10654 10666 10672 10671 10669 10698 10716 10726 10731 10742 10752 10765 10779 10793 10805 10807 10821 10831 10851 10858 10866 10872 10881 10890 10902 10910 10916 10920 10921 10927 10930 10934 10939 10942 10950 10956 10962 10969
10584 10587 10590 10596 10601 10608 10614 10624 10631 10632 10634 10658 10689 10687 10698 10705 10716 10724 10743 10756 10769 10779 10793 10802 10822 10826 10829 10843 10850 10868 10875 10888 10896 10901 10905 10914 10918 10916 10924 10929 10931 10941 10943 10953 10943
10559 10560 10561 10565 10570 10576 10582 10588 10594 10603 10621 10629 10640 10652 10668 10681 10688 10697 10717 10733 10743 10754 10767 10787 10794 10798 10817 10820 10835 10844 10860 10870 10880 10888 10899 10905 10906 10909 10914 10919 10920 10925 10930 10935 10946
10541 10540 10539 10541 10544 10548 10552 10556 10565 10579 10588 10593 10607 10623 10641 10655 10649 10673 10695 10706 10711 10720 10741 10763 10770 10780 10797 10802 10829 10836 10849 10857 10863 10874 10885 10893 10897 10900 10901 10908 10912 10915 10919 10927 10937
10530 10528 10526 10526 10527 10527 10529 10534 10538 10543 10549 10564 10576 10592 10608 10614 10627 10651 10661 10661 10666 10699 10723 10742 10755 10764 10785 10800 10808 10817 10828 10836 10849 10865 10874 10882 10887 10882 10888 10894 10900 10906 10911 10917 10925
10521 10517 10516 10515 10514 10513 10515 10516 10520 10522 10530 10536 10547 10559 10570 10584 10605 10617 10626 10636 10656 10685 10705 10717 10734 10746 10759 10782 10782 10792 10809 10821 10833 10842 10856 10866 10879 10866 10883 10882 10884 10895 10906 10911 10909
10512 10508 10505 10503 10502 10501 10501 10499 10501 10505 10511 10515 10523 10531 10546 10560 10574 10580 10597 10608 10639 10657 10676 10692 10715 10725 10748 10766 10771 10781 10795 10806 10820 10831 10846 10860 10863 10855 10868 10865 10866 10882 10895 10897 10897
10504 10499 10496 10494 10490 10486 10484 10483 10482 10486 10488 10495 10503 10513 10523 10530 10543 10552 10563 10581 10611 10636 10654 10667 10687 10703 10727 10735 10735 10754 10770 10786 10797 10812 10823 10839 10847 10841 10843 10844 10848 10879 10889 10889 10893
10498 10491 10486 10482 10477 10472 10469 10467 10465 10466 10473 10476 10484 10489 10499 10505 10512 10528 10534 10552 10584 10603 10618 10642 10662 10681 10701 10706 10715 10734 10754 10767 10780 10794 10807 10818 10827 10807 10808 10824 10838 10867 10882 10881 10891
10494 10485 10479 10474 10468 10461 10455 10452 10450 10450 10456 10459 10468 10475 10486 10504 10517 10525 10531 10553 10562 10575 10592 10612 10634 10649 10676 10682 10687 10715 10744 10759 10765 10774 10776 10783 10775 10792 10796 10807 10830 10874 10878 10871 10877